Weather History for Minchumina, AK

Change the Weather History Date:

Wednesday, January 9, 2013

  Actual Average Record
Temperature  
Mean Temperature 4 °F -  
Max Temperature 8 °F 0 °F 24 °F (2002)
Min Temperature 1 °F -11 °F -43 °F (2007)
Degree Days  
Heating Degree Days 60    
Moisture  
Dew Point 3 °F    
Average Humidity 86    
Maximum Humidity 100    
Minimum Humidity 78    
Precipitation  
Precipitation 0.00 in - - ()
Sea Level Pressure  
Sea Level Pressure 29.99 in    
Wind  
Wind Speed 0 mph (North)    
Max Wind Speed 0 mph    
Max Gust Speed -    
Visibility 10 miles    
Events      
Averages and records for this station are not official NWS values.
T = Trace of Precipitation, MM = Missing Value Source: NWS Daily Summary

Daily Weather History Graph

Daily Weather History Graph

Search for Another Location

Airport:

Trip Planner

Search our weather history database for the weather conditions in past years. The results will help you decide how hot, cold, wet, or windy it might be!

Date:

Astronomy

Jan. 09, 2013 Rise Set
Actual Time 10:44 AM AKST 3:49 PM AKST
Civil Twilight 9:34 AM AKST 4:58 PM AKST
Nautical Twilight 8:29 AM AKST 6:03 PM AKST
Astronomical Twilight 7:31 AM AKST 7:01 PM AKST
Moon 8:37 AM AKST (1/9) 1:59 PM AKST (1/9)
Length of Visible Light 7h 23m
Length of Day
5h 04m
Waning Crescent, 5% of the Moon is Illuminated
Jan 9
Waning Crescent
Jan 11
New
Jan 18
First Quarter
Jan 26
Full
Feb 3
Last Quarter

Hourly Weather History & Observations

Time (AKST) Temp. Dew Point Humidity Pressure Visibility Wind Dir Wind Speed Gust Speed Precip Events Conditions
12:16 AM 5.0 °F 1.4 °F 85% 30.08 in 7.0 mi Calm Calm - N/A   Overcast
12:36 AM 5.0 °F 1.4 °F 85% 30.08 in 7.0 mi Calm Calm - N/A   Overcast
12:56 AM 3.2 °F 1.4 °F 92% 30.09 in 10.0 mi Calm Calm - N/A   Overcast
1:16 AM 3.2 °F 1.4 °F 92% 30.09 in 10.0 mi Calm Calm - N/A   Overcast
1:36 AM 5.0 °F 1.4 °F 85% 30.09 in 10.0 mi Calm Calm - N/A   Overcast
1:56 AM 5.0 °F 3.2 °F 92% 30.10 in 10.0 mi Calm Calm - N/A   Overcast
2:16 AM 5.0 °F 1.4 °F 85% 30.10 in 10.0 mi Calm Calm - N/A   Overcast
2:36 AM 5.0 °F 1.4 °F 85% 30.09 in 10.0 mi Calm Calm - N/A   Overcast
3:16 AM 5.0 °F 3.2 °F 92% 30.10 in 10.0 mi Calm Calm - N/A   Overcast
3:36 AM 6.8 °F 3.2 °F 85% 30.10 in 10.0 mi Calm Calm - N/A   Overcast
3:56 AM 5.0 °F 1.4 °F 85% 30.10 in 10.0 mi Calm Calm - N/A   Overcast
4:16 AM 6.8 °F 3.2 °F 85% 30.10 in 10.0 mi Calm Calm - N/A   Overcast
4:36 AM 6.8 °F 1.4 °F 79% 30.10 in 10.0 mi Calm Calm - N/A   Overcast
4:56 AM 6.8 °F 3.2 °F 85% 30.09 in 10.0 mi Calm Calm - N/A   Overcast
5:16 AM 6.8 °F 3.2 °F 85% 30.09 in 10.0 mi Calm Calm - N/A   Overcast
5:36 AM 6.8 °F 3.2 °F 85% 30.09 in 10.0 mi Calm Calm - N/A   Overcast
5:56 AM 6.8 °F 3.2 °F 85% 30.09 in 10.0 mi Calm Calm - N/A   Overcast
6:16 AM 6.8 °F 3.2 °F 85% 30.09 in 10.0 mi Calm Calm - N/A   Overcast
6:36 AM 6.8 °F 3.2 °F 85% 30.09 in 10.0 mi Calm Calm - N/A   Overcast
6:56 AM 6.8 °F 3.2 °F 85% 30.08 in 10.0 mi Calm Calm - N/A   Overcast
7:16 AM 6.8 °F 3.2 °F 85% 30.08 in 10.0 mi Calm Calm - N/A   Overcast
7:36 AM 6.8 °F 3.2 °F 85% 30.07 in 9.0 mi Calm Calm - N/A   Overcast
7:56 AM 6.8 °F 3.2 °F 85% 30.07 in 10.0 mi Calm Calm - N/A   Overcast
8:16 AM 6.8 °F 3.2 °F 85% 30.07 in 10.0 mi Calm Calm - N/A   Overcast
8:36 AM 6.8 °F 3.2 °F 85% 30.07 in 10.0 mi Calm Calm - N/A   Overcast
8:56 AM 8.6 °F 5.0 °F 85% 30.06 in 10.0 mi Calm Calm - N/A   Overcast
9:16 AM 8.6 °F 3.2 °F 79% 30.06 in 10.0 mi Calm Calm - N/A   Overcast
9:36 AM 6.8 °F 3.2 °F 85% 30.06 in 10.0 mi Calm Calm - N/A   Overcast
9:56 AM 8.6 °F 5.0 °F 85% 30.05 in 10.0 mi Calm Calm - N/A   Overcast
10:16 AM 8.6 °F 5.0 °F 85% 30.06 in 10.0 mi Calm Calm - N/A   Overcast
10:36 AM 8.6 °F 3.2 °F 79% 30.05 in 10.0 mi Calm Calm - N/A   Overcast
10:56 AM 8.6 °F 5.0 °F 85% 30.05 in 10.0 mi Calm Calm - N/A   Overcast
11:16 AM 6.8 °F 5.0 °F 92% 30.04 in 10.0 mi Calm Calm - N/A   Overcast
11:36 AM 6.8 °F 5.0 °F 92% 30.04 in 10.0 mi Calm Calm - N/A   Overcast
11:56 AM 6.8 °F 3.2 °F 85% 30.04 in 10.0 mi Calm Calm - N/A   Overcast
12:16 PM 6.8 °F 6.8 °F 100% 30.04 in 10.0 mi Calm Calm - N/A   Overcast
12:36 PM 8.6 °F 3.2 °F 79% 30.03 in 10.0 mi Calm Calm - N/A   Overcast
12:56 PM 8.6 °F 5.0 °F 85% 30.03 in 10.0 mi Calm Calm - N/A   Overcast
1:16 PM 8.6 °F 5.0 °F 85% 30.02 in 10.0 mi Calm Calm - N/A   Partly Cloudy
1:36 PM 6.8 °F 3.2 °F 85% 30.02 in 10.0 mi Calm Calm - N/A   Clear
1:56 PM 6.8 °F 5.0 °F 92% 30.01 in 10.0 mi Calm Calm - N/A   Clear
2:16 PM 3.2 °F 1.4 °F 92% 30.01 in 10.0 mi Calm Calm - N/A   Clear
2:36 PM 6.8 °F 5.0 °F 92% 29.99 in 10.0 mi Calm Calm - N/A   Clear
2:56 PM 6.8 °F 1.4 °F 79% 29.98 in 10.0 mi Calm Calm - N/A   Clear
3:16 PM 5.0 °F 3.2 °F 92% 29.97 in 10.0 mi Calm Calm - N/A   Scattered Clouds
3:36 PM 3.2 °F 1.4 °F 92% 29.97 in 10.0 mi Calm Calm - N/A   Partly Cloudy
3:56 PM 3.2 °F 1.4 °F 92% 29.96 in 10.0 mi Calm Calm - N/A   Scattered Clouds
4:16 PM 5.0 °F 1.4 °F 85% 29.95 in 10.0 mi Calm Calm - N/A   Scattered Clouds
4:36 PM 3.2 °F 3.2 °F 100% 29.94 in 10.0 mi Calm Calm - N/A   Mostly Cloudy
4:56 PM 1.4 °F -4.0 °F 78% 29.93 in 10.0 mi Calm Calm - N/A   Mostly Cloudy
5:16 PM 3.2 °F 1.4 °F 92% 29.92 in 10.0 mi Calm Calm - N/A   Scattered Clouds
5:36 PM 5.0 °F 3.2 °F 92% 29.92 in 10.0 mi Calm Calm - N/A   Overcast
5:56 PM 6.8 °F 3.2 °F 85% 29.91 in 10.0 mi Calm Calm - N/A   Overcast
6:16 PM 6.8 °F 1.4 °F 79% 29.90 in 10.0 mi Calm Calm - N/A   Mostly Cloudy
6:36 PM 6.8 °F 3.2 °F 85% 29.90 in 10.0 mi Calm Calm - N/A   Overcast
6:56 PM 6.8 °F 1.4 °F 79% 29.88 in 10.0 mi Calm Calm - N/A   Overcast
7:16 PM 6.8 °F 3.2 °F 85% 29.87 in 10.0 mi Calm Calm - N/A   Overcast
7:36 PM 6.8 °F 3.2 °F 85% 29.87 in 10.0 mi Calm Calm - N/A   Overcast
7:56 PM 6.8 °F 1.4 °F 79% 29.85 in 10.0 mi Calm Calm - N/A   Overcast
8:16 PM 5.0 °F 1.4 °F 85% 29.85 in 10.0 mi Calm Calm - N/A   Overcast
8:36 PM 6.8 °F 3.2 °F 85% 29.85 in 10.0 mi Calm Calm - N/A   Overcast
8:56 PM 6.8 °F 3.2 °F 85% 29.84 in 10.0 mi Calm Calm - N/A   Overcast
9:16 PM 6.8 °F 1.4 °F 79% 29.84 in 10.0 mi Calm Calm - N/A   Overcast
9:36 PM 5.0 °F 1.4 °F 85% 29.84 in 10.0 mi Calm Calm - N/A   Overcast
9:56 PM 5.0 °F 1.4 °F 85% 29.83 in 10.0 mi Calm Calm - N/A   Overcast
10:16 PM 6.8 °F 3.2 °F 85% 29.83 in 10.0 mi Calm Calm - N/A   Overcast
10:36 PM 6.8 °F 3.2 °F 85% 29.83 in 10.0 mi Calm Calm - N/A   Overcast
10:56 PM 6.8 °F 1.4 °F 79% 29.82 in 10.0 mi Calm Calm - N/A   Overcast
11:16 PM 6.8 °F 3.2 °F 85% 29.82 in 10.0 mi Calm Calm - N/A   Overcast
11:36 PM 6.8 °F 3.2 °F 85% 29.83 in 10.0 mi Calm Calm - N/A   Overcast
11:56 PM 6.8 °F 3.2 °F 85% 29.83 in 10.0 mi Calm Calm - N/A   Overcast